Regional Weather Roundup
Issued by NWS

Home | Current Version | Previous Version | Graphics & Text | Print | Product List | Glossary On
Versions: 1 2 3 4 5 6 7 8 9 10 11 12 13 14 15 16 17 18 19 20 21 22 23 24 25 26 27 28 29 30 31 32 33 34 35 36 37 38 39 40 41 42 43 44 45 46 47 48 49 50
000
ASUS43 KOAX 241002
RWRNE

WEATHER ROUNDUP FOR NEBRASKA
NATIONAL WEATHER SERVICE OMAHA NE
500 AM CDT TUE APR 24 2018

NOTES: SATELLITE DATA IS BEING USED TO AUGMENT CLOUD COVER ABOVE
       12000 FEET.
       "FAIR" INDICATES FEW OR NO CLOUDS BELOW 12,000 FEET WITH NO
       SIGNIFICANT WEATHER AND/OR OBSTRUCTIONS TO VISIBILITY.


NEZ001>004-019>022-054>056-241100-
NEBRASKA PANHANDLE

CITY           SKY/WX    TMP DP  RH WIND       PRES   REMARKS
SCOTTSBLUFF    CLOUDY    37  33  85 NW16      30.35R WCI  28
ALLIANCE       CLOUDY    36  33  89 NW21G26   30.29R WCI  25
CHADRON        CLOUDY    37  33  85 NW14G23   30.33R WCI  28
KIMBALL        CLOUDY    34  32  90 NW21G28   30.32R WCI  23
SIDNEY         CLOUDY    36  33  89 NW20G28   30.30R WCI  25
$$

NEZ057>060-069>072-079>082-241100-
SOUTHWEST NEBRASKA

CITY           SKY/WX    TMP DP  RH WIND       PRES   REMARKS
NORTH PLATTE   CLOUDY    46  40  79 N14G24    30.21R
IMPERIAL       LGT RAIN  41  39  93 NW18G28   30.23R
LEXINGTON      CLOUDY    51  43  75 NW8       30.15S
MCCOOK         MOCLDY    51  47  86 NW15      30.16R
OGALLALA       LGT RAIN  42  39  91 N31G37    30.22R
$$

NEZ005>010-023>029-035>040-094-241100-
NORTH CENTRAL NEBRASKA

CITY           SKY/WX    TMP DP  RH WIND       PRES   REMARKS
VALENTINE      CLOUDY    42  38  85 NW21G30   30.20R
AINSWORTH      CLOUDY    42  40  93 NW18G28   30.19R
BROKEN BOW     CLOUDY    53  47  79 NW17      30.15R
O`NEILL        CLOUDY    55  48  79 W5        30.14S
ORD            CLOUDY    47  41  80 NW5       30.12R
THEDFORD       LGT RAIN  42  40  91 NW14G22   30.22R
$$

NEZ041-046>049-061>064-073>077-083>087-241100-
SOUTH CENTRAL NEBRASKA

CITY           SKY/WX    TMP DP  RH WIND       PRES   REMARKS
GRAND ISLAND   CLOUDY    47  39  74 CALM      30.11S
AURORA         PTCLDY    46  36  68 E3        30.10F
HASTINGS       MOCLDY    45  40  82 CALM      30.11S
HEBRON         CLOUDY    38  35  89 CALM      30.11F
HOLDREGE       MOCLDY    45  40  80 CALM      30.13R
KEARNEY        MOCLDY    46  40  79 NW7       30.13R
YORK             N/A     46  34  61 E6        30.11F
$$

NEZ011>018-030>034-042>045-241100-
NORTHEAST NEBRASKA

CITY           SKY/WX    TMP DP  RH WIND       PRES   REMARKS
NORFOLK        CLOUDY    46  38  73 CALM      30.11S
ALBION         MOCLDY    46  37  71 CALM      30.12R
BLAIR          PTCLDY    48  39  69 NE8       30.10F
COLUMBUS       PTCLDY    45  36  70 E6        30.11F
FREMONT        CLEAR     43  35  72 CALM      30.11F
TEKAMAH        CLEAR     39  36  89 N6        30.12F WCI  35
WAYNE          CLOUDY    39  38  97 CALM      30.10F
$$

NEZ050>053-065>068-078-088>093-241100-
SOUTHEAST NEBRASKA

CITY           SKY/WX    TMP DP  RH WIND       PRES   REMARKS
LINCOLN        CLEAR     37  31  78 N7        30.12F WCI  32
OMAHA EPPLEY   PTCLDY    43  37  79 N7        30.11F
BEATRICE       CLEAR     39  32  77 CALM      30.11F
FALLS CITY     CLEAR     42  31  64 NW6       30.10S
NEBRASKA CITY  CLEAR     48  32  53 N6        30.11F
PLATTSMOUTH    PTCLDY    51  36  55 NE5       30.11S
$$

NEZ044-045-051>053-067-241100-
OMAHA AREA

CITY           SKY/WX    TMP DP  RH WIND       PRES   REMARKS
OMAHA EPPLEY   PTCLDY    43  37  79 N7        30.11F
BLAIR          PTCLDY    48  39  69 NE8       30.10F
FREMONT        CLEAR     43  35  72 CALM      30.11F
MILLARD        CLEAR     47  37  68 CALM      30.11F
PLATTSMOUTH    PTCLDY    51  36  55 NE5       30.11S
WAHOO          FAIR      43  31  62 NW3       30.11F
$$




USA.gov is the U.S. government's official web portal to all federal, state and local government web resources and services.